Weather in Siviri

Greece     40°02′06″N   23°21′38″E
temp.,
°C
wind,
m/s
gust,
m/s
humid.,
%
clouds,
%
prec.,
mm/h
press.,
hPa
HPBL,
m
18 may, tue
tue1800:00+20n2280100 0.0 100720
03:00+20wsw22762 0.0 100715
06:00+20wnw33720 0.0 100729
09:00+20nw45740 0.0 1009100
12:00+20wnw69750 0.0 1010134
15:00+21wnw45694 0.0 101047
18:00+22nw67620 0.0 101168
21:00+21nne3366100 0.0 101221
19 may, wed
wed1900:00+20sse458068 0.0 101485
03:00+19ese45845 0.0 1014154
06:00+18e447960 0.0 1013165
09:00+19ese34745 0.0 1014164
12:00+20se56765 0.0 1013151
15:00+20sse56740 0.0 1011132
18:00+21se33735 0.0 100989
21:00+21se347495 0.0 100951
20 may, thu
thu2000:00+20ese127899 0.0 100913
03:00+20wnw33745 0.0 100840
06:00+19nw67805 0.0 1008211
09:00+19wnw78760 0.0 1008236
12:00+19wnw55710 0.0 1008117
15:00+20wnw2259100 0.0 100838
18:00+21nw911633 0.0 1008273
21:00+20nw7964100 0.0 1009265
21 may, fri
fri2100:00+19nnw81065100 0.0 1010588
03:00+18nne557116 1.4 1011569
06:00+17n5565100 1.4 1010697
09:00+16nnw13145997 2.1 1012974
12:00+18nnw131353100 0.0 10121614
15:00+18n13135959 0.1 10121648
18:00+18nnw1515572 0.0 10121551
21:00+17nnw1415613 0.0 10141240
22 may, sat
sat2200:00+17nnw1315625 0.0 10151292
03:00+17nnw1014620 0.0 10151157
06:00+17nnw1113600 0.0 10151156
09:00+17nw1012613 0.0 1016846
12:00+18nw88580 0.0 1016510
15:00+19w55570 0.0 1015149
18:00+20sw66580 0.0 101497
21:00+19sse77670 0.0 1016295